Volver al catálogo

CZ-6A DEB

ActivoSSO
NORAD 58431·DEBRIS·🇨🇳 China

Lanzado Nov 11, 2022 desde Taiyuan Satellite Launch Center

Loading…

Próximos Pases (próximas 24 horas)

TLE

ActualizadoSource: Space-Track

Época: Sep 12, 2026, 05:56 UTC

1 58431U 22151AHZ 26255.24752050  .00003115  00000-0  13530-2 0  9991
2 58431  98.8341 267.0378 0050916  69.6479 291.0159 14.24163971179160

Sigue CZ-6A DEB en tiempo real con AllMySat

Download on the App Store